[[{"header":{"parameterUnit":"m.s-1","parameterCategory":1,"la1":30.2992,"la2":30.254,"lo1":-89.0895,"lo2":-89.0443,"dy":0.0025,"dx":0.0025,"nx":19,"ny":19,"refTime":"2026-05-22T09:00:00:Z","depth":0,"parameterNumber":2,"parameterNumberName":"U-component_of_WINDS"},"data":[0,0,0,-0.7504,-0.7505,-0.7546,-0.7546,-0.76,-0.7601,0,0,0,0,0,0,0,0,0,0,0,-0.7491,-0.7492,-0.7504,-0.7505,-0.7545,-0.7546,-0.76,-0.7601,0,0,0,0,0,0,0,0,0,0,0,-0.7491,-0.7492,-0.7492,-0.7505,-0.7545,-0.7546,-0.76,-0.7569,0,0,0,0,0,0,0,0,0,0,-0.7529,-0.7517,-0.7492,-0.7492,-0.7505,-0.7545,-0.7546,-0.7567,-0.7571,-0.7582,0,-0.7591,0,-0.7597,-0.7604,-0.7605,0,0,0,-0.7505,-0.7514,-0.7525,-0.7492,-0.7506,-0.7545,-0.7527,-0.7569,-0.7573,-0.7587,-0.7592,-0.7594,-0.7598,-0.7605,-0.7605,-0.7668,-0.7668,0,0,-0.7503,-0.7499,-0.7522,-0.7527,-0.752,-0.7526,-0.7529,-0.7572,-0.7577,-0.7592,-0.7595,-0.7598,-0.7605,-0.7605,-0.7667,-0.7668,0,0,0,-0.7496,-0.7497,-0.7507,-0.7525,-0.7532,-0.7527,-0.753,-0.7575,-0.7579,-0.7596,-0.7599,-0.7605,-0.7606,-0.7667,-0.7667,-0.7677,0,0,0,-0.7495,-0.7493,-0.7506,-0.7504,-0.7532,-0.7554,-0.7533,-0.7576,-0.7581,-0.7599,-0.7605,-0.7607,-0.7667,-0.7667,-0.7676,-0.7682,0,0,0,-0.7489,-0.7493,-0.7498,-0.7504,-0.7521,-0.7553,-0.7559,-0.7577,-0.7583,-0.7605,-0.7607,-0.7666,-0.7667,-0.7675,-0.7681,-0.7699,0,0,0,-0.7482,-0.7505,-0.7498,-0.7527,-0.7521,-0.7558,-0.7559,-0.7587,-0.7607,-0.7606,-0.7667,-0.7667,-0.7675,-0.768,-0.7698,-0.7713,-0.7719,0,0,-0.7509,-0.7509,-0.7526,-0.7521,-0.7558,-0.7552,-0.7592,-0.7614,-0.7621,-0.7652,-0.7654,-0.7676,-0.7681,-0.7699,-0.7751,-0.7756,0,0,0,-0.7533,-0.7546,-0.7557,-0.7575,-0.7592,-0.7609,-0.7625,-0.7634,-0.7661,-0.7635,-0.7687,-0.769,-0.7701,-0.7708,-0.7712,-0.7722,-0.767,-0.767,-0.767,-0.7567,-0.7574,-0.7603,-0.7616,-0.7634,-0.7651,-0.7668,-0.7683,-0.7684,-0.7696,-0.7706,-0.7737,-0.7745,-0.7748,-0.7759,-0.7714,-0.7714,-0.7714,-0.7714,-0.7609,-0.7628,-0.7631,-0.766,-0.7668,-0.7694,-0.7713,-0.7714,-0.774,-0.7729,-0.7739,-0.7728,-0.7753,-0.7763,-0.7715,-0.7714,-0.7714,-0.7714,-0.7714,-0.7632,-0.7643,-0.7653,-0.7682,-0.7704,-0.7716,-0.7742,-0.7748,-0.7754,-0.7764,-0.7776,-0.7776,-0.7777,-0.7769,-0.7769,-0.7769,-0.7769,-0.7769,-0.7769,-0.7653,-0.7664,-0.7684,-0.7706,-0.772,-0.7739,-0.7759,-0.7773,-0.7791,-0.7794,-0.7794,-0.7796,-0.7754,-0.7744,-0.7771,-0.7771,-0.777,-0.777,-0.777,-0.7695,-0.7687,-0.7717,-0.7731,-0.7759,-0.7782,-0.779,-0.7819,-0.7832,-0.7845,-0.7845,-0.7813,-0.7812,-0.781,-0.7801,-0.7842,-0.7842,-0.7842,-0.7842,-0.7715,-0.7716,-0.775,-0.7772,-0.7795,-0.7806,-0.7844,-0.786,-0.7876,-0.7886,-0.7881,-0.787,-0.7867,-0.7869,-0.7864,-0.7857,-0.7911,-0.7911,-0.7911,-0.7742,-0.7746,-0.7775,-0.779,-0.7813,-0.7833,-0.7869,-0.7897,-0.7913,-0.7914,-0.7893,-0.789,-0.7874,-0.7867,-0.7868,-0.7861,-0.7847,0,0]},{"header":{"parameterUnit":"m.s-1","parameterCategory":1,"la1":30.2992,"la2":30.254,"lo1":-89.0895,"lo2":-89.0443,"dy":0.0025,"dx":0.0025,"nx":19,"ny":19,"refTime":"2026-05-22T09:00:00:Z","depth":0,"parameterNumber":3,"parameterNumberName":"V-component_of_WINDS"},"data":[0,0,0,6.509,6.5095,6.5314,6.5315,6.559,6.5592,0,0,0,0,0,0,0,0,0,0,0,6.5025,6.5027,6.509,6.5095,6.5314,6.5315,6.5589,6.5592,0,0,0,0,0,0,0,0,0,0,0,6.5024,6.5027,6.5029,6.5096,6.5314,6.5315,6.5588,6.5424,0,0,0,0,0,0,0,0,0,0,6.5212,6.5153,6.5026,6.5029,6.5097,6.5314,6.5315,6.5416,6.5434,6.5489,0,6.5541,0,6.5571,6.561,6.5611,0,0,0,6.5094,6.5138,6.5198,6.5029,6.5099,6.5314,6.5215,6.5426,6.5447,6.5513,6.5545,6.5555,6.5576,6.5612,6.5613,6.5943,6.5945,0,0,6.5081,6.5064,6.5184,6.5211,6.5181,6.5208,6.5222,6.5439,6.5471,6.5546,6.5561,6.558,6.5614,6.5616,6.5942,6.5943,0,0,0,6.5048,6.5055,6.5109,6.52,6.524,6.5214,6.523,6.5461,6.5481,6.5564,6.5584,6.5616,6.5619,6.594,6.5942,6.6007,0,0,0,6.504,6.5035,6.5104,6.5095,6.5236,6.5354,6.5248,6.5466,6.5491,6.5582,6.5616,6.5622,6.5938,6.5941,6.6002,6.604,0,0,0,6.501,6.5032,6.5064,6.5094,6.5188,6.5351,6.5383,6.5471,6.5503,6.5612,6.5622,6.5937,6.5941,6.5997,6.6032,6.6123,0,0,0,6.4972,6.5115,6.5065,6.5232,6.5186,6.5391,6.5382,6.5534,6.5635,6.5617,6.5938,6.5942,6.5995,6.6027,6.6118,6.6198,6.6229,0,0,6.5142,6.5135,6.5235,6.5196,6.5406,6.5358,6.5576,6.5683,6.5707,6.5862,6.587,6.6003,6.6031,6.6122,6.6411,6.6436,0,0,0,6.5282,6.5354,6.5413,6.5512,6.56,6.5679,6.5755,6.5795,6.5929,6.5785,6.6061,6.6078,6.6132,6.6171,6.6192,6.624,6.5959,6.5959,6.5958,6.5496,6.5524,6.5691,6.5746,6.584,6.592,6.5999,6.6065,6.6061,6.6126,6.6173,6.6345,6.639,6.6406,6.6456,6.6216,6.6216,6.6217,6.6217,6.5748,6.5854,6.5851,6.6012,6.6039,6.6173,6.6254,6.6248,6.6375,6.6312,6.636,6.629,6.6433,6.6478,6.6222,6.6221,6.622,6.622,6.622,6.5892,6.5948,6.5997,6.6144,6.6253,6.6301,6.6426,6.6444,6.6462,6.6511,6.6562,6.6561,6.6563,6.6534,6.6535,6.6535,6.6536,6.6536,6.6537,6.6021,6.6075,6.618,6.6288,6.6355,6.6445,6.6527,6.6592,6.6669,6.6672,6.6673,6.6663,6.6442,6.6387,6.6546,6.6544,6.6543,6.6542,6.6542,6.6267,6.6216,6.6377,6.6445,6.6574,6.6682,6.6706,6.6837,6.6893,6.6954,6.6935,6.6768,6.676,6.6744,6.6698,6.6928,6.6928,6.6928,6.6928,6.6389,6.6388,6.6559,6.6666,6.6773,6.6812,6.6991,6.7057,6.7115,6.7152,6.7121,6.7062,6.7044,6.7047,6.7023,6.6981,6.7278,6.7278,6.7279,6.6542,6.6554,6.6704,6.6766,6.6869,6.6957,6.7127,6.7247,6.7302,6.7293,6.7181,6.7166,6.707,6.7038,6.7026,6.6989,6.6912,0,0]}]]